Location: Unspecified
(0.0000°N, 0.0000°E)
Time: 08:40:28
(UTC+00:00)

Vanguard 1 - Visible Passes

Search period start: 03 October 2023 00:00
Search period end: 13 October 2023 00:00
Orbit: 650 x 3830 km, 34.2° (Epoch: 02 October)

Date Brightness Start Highest point End Pass type
(mag) Time Alt. Az. Time Alt. Az. Time Alt. Az.
03 Oct 12.9 18:25:48 10° NW 18:45:53 80° NE 19:09:11 10° ESE visible
03 Oct 13.2 20:51:59 10° WNW 21:13:49 49° SW 21:23:39 34° SSE visible
03 Oct 13.9 23:29:59 10° WSW 23:36:28 16° SW 23:36:28 16° SW visible
04 Oct 12.5 04:35:52 10° S 04:38:33 12° SSE 04:40:51 10° SE visible
04 Oct 12.9 18:46:37 10° NW 19:07:07 86° SW 19:30:19 10° SE visible
04 Oct 13.4 21:14:37 10° W 21:35:25 39° SW 21:44:32 29° S visible
04 Oct 14.1 23:55:54 10° SW 23:57:22 11° SW 23:57:22 11° SW visible
05 Oct 12.0 04:54:58 10° SSW 04:59:50 19° SSE 05:03:31 10° ESE visible
05 Oct 13.0 19:07:42 10° WNW 19:28:25 72° SW 19:51:12 10° SE visible
05 Oct 13.5 21:37:54 10° W 21:57:15 32° SSW 22:05:26 25° S visible
06 Oct13.900:39:37SSE00:39:37SSE00:18:16SWvisible
06 Oct 11.4 05:14:51 10° SSW 05:20:53 30° SSE 05:25:09 10° E visible
06 Oct 13.2 19:29:08 10° WNW 19:49:50 60° SW 20:11:55 10° SE visible
06 Oct 13.6 22:01:59 10° WSW 22:19:25 25° SSW 22:26:17 22° S visible
07 Oct13.700:59:07SSE00:59:07SSE00:39:06SWvisible
07 Oct 12.9 03:14:29 10° SSW 03:18:43 13° SSE 03:22:09 10° SE visible
07 Oct 13.4 19:51:00 10° WNW 20:11:26 49° SW 20:32:30 10° SE visible
07 Oct 13.7 22:26:48 10° WSW 22:41:56 21° SSW 22:47:02 19° S visible
08 Oct13.601:18:45SSE01:18:45SSE00:59:51SWvisible
08 Oct 12.5 03:34:01 10° SSW 03:40:20 18° SSE 03:44:52 10° ESE visible
08 Oct 12.9 17:46:55 10° NW 18:04:38 85° SW 18:28:42 10° SE visible
08 Oct 13.6 20:13:24 10° W 20:33:16 40° SSW 20:53:02 10° SSE visible
08 Oct 13.8 22:52:06 10° SW 23:04:45 17° SSW 23:07:37 17° S visible
09 Oct 13.4 01:38:35 11° SSE 01:38:35 11° SSE 01:40:04 10° SSE visible
09 Oct 12.0 03:54:00 10° SSW 04:01:42 27° SSE 04:06:44 10° E visible
09 Oct 13.1 18:07:53 10° WNW 18:25:55 71° SW 18:49:43 10° SE visible
09 Oct 13.8 20:36:25 10° W 20:55:23 32° SSW 21:13:35 10° SSE visible
09 Oct 13.9 23:17:17 10° SW 23:27:47 15° SSW 23:27:58 15° S visible
10 Oct 13.2 01:58:35 15° SSE 01:58:35 15° SSE 02:03:24 10° SE visible
10 Oct 11.3 04:14:18 10° SW 04:22:50 39° SSE 04:28:03 10° E visible
10 Oct 13.3 18:29:11 10° WNW 18:47:25 58° SW 19:10:33 10° SE visible
10 Oct 13.9 21:00:06 10° WSW 21:17:51 27° SSW 21:34:15 10° SSE visible
10 Oct 13.9 23:41:36 10° SSW 23:48:05 14° SSW 23:48:05 14° SSW visible
11 Oct 12.9 02:18:47 19° S 02:20:05 19° SSE 02:26:05 10° ESE visible
11 Oct 10.5 04:34:54 10° SW 04:43:44 62° SSE 04:48:57 10° ENE visible
11 Oct 13.5 18:50:53 10° W 19:09:08 48° SSW 19:31:17 10° SE visible
11 Oct 13.9 21:24:27 10° WSW 21:40:40 22° SSW 21:55:09 10° SSE visible
12 Oct 13.9 00:04:32 10° SSW 00:26:21 - SE 00:07:57 13° SSW visible
12 Oct 12.5 02:39:07 23° S 02:41:48 26° SSE 02:48:10 10° ESE visible
12 Oct 10.0 04:55:48 10° SW 05:04:22 82° NW 05:09:29 10° NE visible
12 Oct 13.7 19:13:05 10° W 19:31:07 39° SSW 19:52:01 10° SE visible
12 Oct 13.9 21:49:11 10° SW 22:03:48 19° SSW 22:14:53 12° SSE visible
